星链-2691 (STARLINK-2691 )

导读 | 豆包AI

STARLINK-2691是美国太空探索技术公司SpaceX星链(Starlink)卫星互联网项目的卫星,于2021年5月26日发射。星链计划旨在通过近地轨道卫星群为全球提供高速互联网接入服务,STARLINK-2691承担了拓展星链网络覆盖容量与服务范围的任务。

Basic Information
目录编号:
48647
目录名称:
STARLINK-2691
国际标识:
2021-044K
轨道中心:
EARTH
卫星名称:
星链-2691
卫星全名:
星链-2691 (STARLINK-2691 )
卫星状态:
已陨落 最后检测时间 2025-01-28
发射日期:
2021-05-26 UTC
国别 :
美国 (US)
星等 :
--
Orbit Information
数据来源 国际轨道数据
星历时间: 2025-01-28T23:29:17+0800
轨道信息已过期457天
半长轴: 6534.532km
偏心率: 0.0005513
轨道倾角: 53.036°
近地点辐角 298.873°
升交点赤经 122.487°
平近点角 167.725°
近地点: 152.794km
远地点: 160km
周期: 87.616分钟
每日圈数: 16.43543
Detailed Information
固有亮度:
5
最大亮度:
2.5
卫星平台:
Starlink V1.0
覆盖范围:
全球
运营商:
太空探索技术公司
运营商所在国:
美国
制造商(研发单位):
太空探索技术公司
制造商所在国:
美国
使用方式:
暂无
Satellite Introduction
星链(Starlink)计划是由太空探索技术公司(SpaceX)提出的一个巨型低轨卫星互联网星座项目,计划在2019年至2024年间在太空搭建由约1.2万颗卫星组成的“星链”网络,其中1584颗将部署在地球上空550千米处的近地轨道,并从2020年开始工作。该卫星仍在工作。